Location: Bow
(51.5261°N, 0.0167°W)
Time: 22:32:12
(UTC+00:00)

NOSS 3-2 (C) - Pass Details

Date: 18 September 2020
Orbit: 795 x 1418 km, 63.4° (Epoch: 25 October)

Event Time Altitude Azimuth Distance (km) Brightness Sun altitude
Rises 18:41:34 0° 309° (NW) 3,792 7.8 -6.2°
Reaches altitude 10° 18:44:10 10° 315° (NW) 2,925 7.0 -6.6°
Maximum altitude 18:51:00 50° 30° (NNE) 1,505 4.4 -7.7°
Enters shadow 18:58:45 10° 104° (ESE) 3,320 5.6 -8.8°
